Find Starlink 37202

NORAD ID: 68731 Int'l Des: 2026-082 Owner: SPXS Country: US Constellation: starlink operational
LEOCIRCULARRETROGRADE

現在のビュー

3D地球を読み込み中...

Starlink 37202について

説明を読み込み中...

次回通過

Passes for default location (London). Set your location on the main map for personalized predictions.

高度履歴

Loading altitude history...

軌道要素

1 68731U 26082D 26151.16668980 -.02455468 00000-0 -67861-1 0 9997
2 68731 97.2840 14.8618 0001675 99.5841 9.2273 15.40720933 5912
Epoch: May 31, 2026 • Age: 8 hours

現在のステータス

高度 454.7 km
速度 7.64 km/s
衛星直下点 41.39°N, 52.86°W
打ち上げ日 Apr 15, 2026
運用期間 0.1 years
タイプ internet

技術仕様

分類 Payload
質量 575.00 kg
乾燥質量 530.00 kg
総質量 575.00 kg
長さ 0.30 m
直径 4.10 m
スパン 29.00 m
形状 Box + pan
製造者 SPXS
バスタイプ Starlink V2MO
フェーズステータス In Orbit
所有者/国 SPXS/US

Most Searched